Location: Cazarilh
(42.9578°N, 0.5819°E)
Time: 00:26:15
(UTC+00:00)

NOAA 6 - Pass Details

Date: 11 December 2019
Orbit: 772 x 787 km, 98.7° (Epoch: 17 January)

Event Time Altitude Azimuth Distance (km) Brightness Sun altitude
Rises 06:02:30 0° 9° (N) 3,259 7.2 -13.4°
Reaches altitude 10° 06:04:51 10° 6° (N) 2,328 6.4 -13.0°
Maximum altitude 06:09:52 57° 288° (WNW) 907 4.1 -12.1°
Drops below altitude 10° 06:14:52 10° 211° (SSW) 2,318 6.4 -11.2°
Sets 06:17:12 0° 207° (SSW) 3,244 7.2 -10.9°
